Location: �quirre
(50.4736°N, 2.2351°E)
Time: 19:45:41
(UTC+00:00)

Cosmos 2360 Rocket - Pass Details

Date: 07 August 2020
Orbit: 833 x 845 km, 71.0° (Epoch: 22 September)

Event Time Altitude Azimuth Distance (km) Brightness Sun altitude
Rises 00:26:11 0° 323° (NW) 3,416 6.0 -22.9°
Reaches altitude 10° 00:29:00 10° 311° (NW) 2,475 5.0 -22.8°
Maximum altitude 00:33:34 26° 257° (WSW) 1,616 3.4 -22.7°
Enters shadow 00:33:53 26° 252° (WSW) 1,621 3.4 -22.7°
